Miscellaneous Local Product
Issued by NWS North Platte, NE

Home | Current Version | Previous Version | Graphics & Text | Print | Product List | Glossary On
Versions: 1 2 3 4 5 6 7 8 9 10 11 12 13 14 15 16 17 18 19 20 21 22 23 24 25 26 27 28 29 30 31 32 33 34 35 36 37 38 39 40 41 42 43 44 45 46 47 48 49 50
000
AXUS43 KLBF 051010
MISLBF


WESTERN AND NORTH CENTRAL NEBRASKA HOURLY WEATHER ROUNDUP
NATIONAL WEATHER SERVICE NORTH PLATTE NE
400 AM CST MON DEC 05 2016

NOTE: "FAIR" INDICATES FEW OR NO CLOUDS BELOW 12,000 FEET WITH NO
SIGNIFICANT WEATHER AND/OR OBSTRUCTIONS TO VISIBILITY.

NOTE: STATIONS NOT REPORTING VARIABLES SUCH AS SKY/WEATHER OR
PRESSURE ARE PROVIDED BY RAWS AND APRS NETWORKS AND ARE NOT UNDER
NATIONAL WEATHER SERVICE QUALITY CONTROL.

...OBSERVATIONS IN AND NEAR THE EASTERN PANHANDLE OF NEBRASKA...

CITY           SKY/WX    TMP DP  RH WIND       PRES   REMARKS
PINE RIDGE     PTCLDY    37  26  64 SW3       29.52F
CHADRON        CLOUDY    44  22  41 SW12      29.52F
ALLIANCE       CLOUDY    39  20  46 S7        29.56F WCI  34
SIDNEY         CLOUDY    33  16  49 SW12      29.61F WCI  24
CRESCENT LAKE    N/A     43  18  36 SW6         N/A
$$

...OBSERVATIONS IN NORTHERN NEBRASKA AND FAR SOUTHERN SOUTH DAKOTA...

CITY           SKY/WX    TMP DP  RH WIND       PRES   REMARKS
WINNER         FAIR      37  21  52 SW15      29.54F WCI  28
VALENTINE      PTCLDY    34  18  52 VRB3      29.57F
THEDFORD       CLOUDY    41  21  44 CALM      29.60F
AINSWORTH      CLOUDY    37  20  51 SW9       29.58F WCI  30
O`NEILL        CLOUDY    38  22  52 SW12      29.62F WCI  30
ORD            CLOUDY    37  20  50 S7        29.65F WCI  32
BROKEN BOW     CLOUDY    35  21  56 S9        29.65F WCI  28
VALENTINE NWR    N/A     34  17  49 W6          N/A  WCI  29
BUTTE            N/A     33  22  64 S8          N/A  WCI  26
HALSEY           N/A     40  17  38 CALM        N/A
CHAMBERS         N/A     34  18  52 S3          N/A
EWING            N/A     38  25  59 S8          N/A  WCI  32
$$

...OBSERVATIONS IN SOUTHWEST NEBRASKA AND FAR NORTHEAST COLORADO...

CITY           SKY/WX    TMP DP  RH WIND       PRES   REMARKS
HOLYOKE        FAIR      34  19  55 CALM      29.63F
IMPERIAL       CLOUDY    30  19  63 N5        29.64F WCI  25
OGALLALA       CLOUDY    37  20  49 CALM      29.64S
NORTH PLATTE   CLOUDY    32  21  64 CALM      29.67S
MCCOOK         CLOUDY    34  19  54 SW3       29.68F
LEXINGTON      CLOUDY    37  21  52 CALM      29.69F
STAPLETON        N/A     35  20  54 CALM        N/A
GOTHENBURG       N/A     37  19  48 S3          N/A
CALLAWAY         N/A     33  22  63 CALM        N/A
$$

...OBSERVATIONS IN CENTRAL LINCOLN COUNTY AREA...

CITY           SKY/WX    TMP DP  RH WIND       PRES   REMARKS
N.P. AIRPORT   CLOUDY    32  21  64 CALM      29.67S
N.P. DOWNTOWN    N/A     35  21  56 CALM        N/A
N.P. SOUTHEAST   N/A     35  20  54 CALM        N/A
N.P. HILLCREST   N/A     35  20  55 S3          N/A
$$

...SOME OBSERVATIONS FROM AROUND THE REGION...

CITY           SKY/WX    TMP DP  RH WIND       PRES   REMARKS
LARAMIE        CLOUDY    35  17  47 SW25G35   29.61F WCI  23
CHEYENNE       CLOUDY    36  18  48 W13       29.61S WCI  27
DENVER         CLOUDY    30  16  56 SE12      29.61F WCI  20
AKRON          CLOUDY    31  13  47 W10       29.63F WCI  22
SCOTTSBLUFF    CLOUDY    40  20  44 NW3       29.57F
RAPID CITY     CLOUDY    33  21  61 NE3       29.48F
BISMARCK       CLOUDY    19  16  88 N6        29.58S WCI  11
PIERRE         CLEAR     29  23  78 SE5       29.52F WCI  24
SIOUX FALLS    CLOUDY    35  30  82 SE9       29.66F WCI  28
OMAHA          CLOUDY    32  28  85 SE8       29.83F WCI  25
GRAND ISLAND   PTCLDY    38  26  62 S18       29.71F WCI  28
KANSAS CITY    CLEAR     31  28  89 S10       29.92F WCI  22
WICHITA        CLEAR     33  31  92 S12       29.92F WCI  24
OKLAHOMA CITY  MOCLDY    33  32  96 S6        29.97F FOG     WCI  28
DALLAS         CLOUDY    48  41  76 N8        29.95F
AMARILLO       CLOUDY    31  28  89 SW13      29.88F WCI  21
DODGE CITY     CLEAR     35  25  66 S13       29.79F WCI  26
HAYS           CLOUDY    37  25  61 S14       29.77F WCI  28
GOODLAND       CLOUDY    30  16  56 SW12      29.63F WCI  20
$$




USA.gov is the U.S. government's official web portal to all federal, state and local government web resources and services.